Regional Weather Roundup
Issued by NWS Lake Charles, LA

Home | Current Version | Previous Version | Text Only | Print | Product List | Glossary On
Versions: 1 2 3 4 5 6 7 8 9 10 11 12 13 14 15 16 17 18 19 20 21 22 23 24 25 26 27
000
ASUS44 KLCH 290910
RWRLCH
REGIONAL WEATHER ROUNDUP
NATIONAL WEATHER SERVICE LAKE CHARLES LA
400 AM CDT SUN MAY 29 2016

Note: "fair" indicates few or no clouds below 12,000 feet with no
significant weather and/or obstructions to visibility.


ACROSS SOUTHEAST TEXAS

CITY           SKY/WX    TMP DP  RH WIND       PRES   REMARKS
BEAUMONT       CLOUDY    72  70  93 CALM      30.04R
BEAUMONT CITY  FAIR      73  71  93 CALM      30.04R
ORANGE         CLOUDY    70  68  93 CALM      30.05S FOG
JASPER         CLOUDY    66  65  97 CALM      30.07S
$$

ACROSS CENTRAL LOUISIANA

CITY           SKY/WX    TMP DP  RH WIND       PRES   REMARKS
LEESVILLE      CLEAR     70  69  96 S2        30.04S
FULLERTON      FAIR      68  65  90 CALM      30.02S
ALEXANDRIA INT CLEAR     69  69 100 CALM      30.04R
ESLER FIELD    PTCLDY    67  64  90 CALM      30.05R FOG
DERIDDER       FAIR      67  66  95 CALM      30.06F
OAKDALE        FOG       66  65  97 CALM      30.05R VSB 1/4
OPELOUSAS      FAIR      67  67  99 CALM      30.04S
$$

ACROSS SOUTHWEST AND SOUTH CENTRAL LOUISIANA

CITY           SKY/WX    TMP DP  RH WIND       PRES   REMARKS
SULPHUR        CLOUDY    74  74  99 CALM      30.05R
LAKE CHARLES   MOCLDY    72  71  97 CALM      30.04S FOG
CHENNAULT INT  NOT AVBL
CAMERON PHI    MOSUNNY   77  73  88 S5        30.06S
DEQUINCY       FAIR      67  67 100 CALM      30.05S
JENNINGS       FAIR      72  72 100 CALM      30.04R FOG
LAFAYETTE      CLEAR     71  69  93 CALM      30.05R
NEW IBERIA     CLEAR     70  68  93 CALM      30.05R
ABBEVILLE      FOG       69  69 100 CALM      30.04R VSB 1
PATTERSON      FOG       69  69 100 CALM      30.05R VSB 1/2
SALT POINT       N/A     71  70  96 CALM      30.03
$$

SELECTED SITES ACROSS THE REGION

CITY           SKY/WX    TMP DP  RH WIND       PRES   REMARKS
HOUSTON BUSH   CLOUDY    71  71 100 CALM      30.02F
HOUSTON HOBBY  CLOUDY    75  72  90 E3        30.01F
GALVESTON      MOCLDY    77  76  96 SE3       30.03R
COLLEGE STAT   CLOUDY    74  72  93 SE3       30.03F
CONROE         CLOUDY    70  69  97 CALM      30.05S
HUNTSVILLE     CLOUDY    73  71  93 S5        30.05S
LUFKIN         MOCLDY    68  67  96 CALM      30.05R
SHREVEPORT     CLOUDY    73  70  90 SW5       30.05R
MONROE         MOCLDY    70  69  97 CALM      30.05R
NATCHEZ MS     CLOUDY    68  64  88 CALM      30.06R
BATON ROUGE    CLEAR     69  67  93 CALM      30.05R
N.O. INTL ARPT PTCLDY    70  68  93 CALM      30.04R
SLIDELL        PTCLDY    65  65 100 CALM      30.04R
$$

MARINE REPORTS

STATION/POSITION TIME  SKY/WX   TEMP    WIND        PRES    VSBY
                                AIR SEA DIR/SP/G
                 (UTC)          (F)     (DEG/KT/KT) (MB)    (MI)
BUOY 30 S HIGH I 0850            79 81  150/  6/  8 1016.4R
WVE H/P(F/S)=  3/ 6

SEA RIM ST PARK  0900            78     200/  4/  5 1017.5R
PORT ARTHUR      0800               79  160/  2/  3 1017.1R
SABINE PASS N    0800            77 80  170/  3/  5 1018.2R
TEXAS POINT      NOT AVBL
CALCASIEU PASS   0800            78 81  200/  6/  8 1016.1R
LK CHARLES BEACH 0800            75 78              1017.5R
MARSH ISLAND     0800            79                   N/A
FRESH WATER LOCK 0800            76 81  120/  3/  4 1017.1F
AMERADA PASS     0800            72 75   50/  1/  3 1016.4F
$$




USA.gov is the U.S. government's official web portal to all federal, state and local government web resources and services.